Location: Rounton
(54.4000°N, 1.3500°W)
Time: 01:59:38
(UTC+00:00)

A-11 Canister half - Pass Details

Date: 29 November 2021
Orbit: 1524 x 1684 km, 47.3° (Epoch: 19 January)

Event Time Altitude Azimuth Distance (km) Brightness Sun altitude
Exits shadow 01:07:14 10° 98° (E) 3,900 11.2 -54.3°
Drops below altitude 10° 01:07:26 10° 97° (E) 3,930 11.2 -54.3°
Sets 01:12:25 0° 76° (ENE) 4,886 12.0 -53.9°
